This is the latest recevied weather packets stored in our database for station/object CQ0XVC-11. If no packets are shown the sender has not sent any weather packets the latest 10 day(s).
| Time | Temp. | Humidity | Pressure | Rain* | Wind** | Luminosity | Snow |
|---|---|---|---|---|---|---|---|
| 1777886460 | 13.89° C | 58% | 1003.7 hPa | 0 mm | - | - | - |
| 1777886157 | 13.33° C | 56% | 1003.7 hPa | 0 mm | - | - | - |
| 1777885855 | 13.33° C | 58% | 1003.8 hPa | 0 mm | - | - | - |
| 1777885591 | 13.33° C | 61% | 1003.8 hPa | 0 mm | - | - | - |
| 1777885553 | 13.33° C | 61% | 1003.8 hPa | 0 mm | - | - | - |
| 1777884948 | 13.33° C | 58% | 1003.9 hPa | 0 mm | - | - | - |
| 1777884709 | 13.33° C | 63% | 1003.8 hPa | 0 mm | - | - | - |
| 1777884647 | 13.33° C | 63% | 1003.8 hPa | 0 mm | - | - | - |
| 1777884392 | 13.33° C | 60% | 1003.8 hPa | 0 mm | - | - | - |
| 1777884344 | 13.33° C | 60% | 1003.8 hPa | 0 mm | - | - | - |
| 1777884097 | 13.33° C | 59% | 1003.7 hPa | 0 mm | - | - | - |
| 1777884042 | 13.33° C | 59% | 1003.7 hPa | 0 mm | - | - | - |
| 1777883791 | 13.33° C | 60% | 1003.7 hPa | 0 mm | - | - | - |
| 1777883740 | 13.33° C | 60% | 1003.7 hPa | 0 mm | - | - | - |
| 1777883438 | 13.33° C | 59% | 1003.5 hPa | 0 mm | - | - | - |
| 1777883239 | 13.33° C | 61% | 1003.5 hPa | 0 mm | - | - | - |
| 1777883185 | 13.33° C | 61% | 1003.5 hPa | 0 mm | - | - | - |
| 1777882882 | 13.33° C | 61% | 1003.6 hPa | 0 mm | - | - | - |
| 1777882580 | 13.33° C | 65% | 1003.6 hPa | 0 mm | - | - | - |
| 1777882490 | 13.33° C | 66% | 1003.5 hPa | 0 mm | - | - | - |
| 1777882453 | 13.33° C | 66% | 1003.5 hPa | 0 mm | - | - | - |
| 1777882151 | 12.78° C | 67% | 1003.5 hPa | 0 mm | - | - | - |
| 1777881849 | 13.33° C | 63% | 1003.5 hPa | 0 mm | - | - | - |
| 1777881546 | 13.89° C | 66% | 1003.6 hPa | 0 mm | - | - | - |
| 1777881245 | 13.89° C | 67% | 1003.4 hPa | 0 mm | - | - | - |
* Rain since midnight (hover to see other rain measurements)
** Current wind speed in m/s (hover to see current wind gust speed)